Time,TemperatureF,DewpointF,PressureIn,WindDirection,WindDirectionDegrees,WindSpeedMPH,WindSpeedGustMPH,Humidity,HourlyPrecipIn,Conditions,Clouds,dailyrainin,SoftwareType,DateUTC
2015-08-29 00:02:00,57.9,40.4,29.89,SE,144,0.0,0.0,52,0.00,,---,0.00,VWS V15.00,2015-08-29 07:02:00,
2015-08-29 00:07:00,57.9,40.4,29.89,SE,144,0.0,0.0,52,0.00,,---,0.00,VWS V15.00,2015-08-29 07:07:00,
2015-08-29 00:12:00,58.1,40.6,29.89,SE,144,0.0,0.0,52,0.00,,---,0.00,VWS V15.00,2015-08-29 07:12:00,
2015-08-29 00:17:00,58.1,41.1,29.89,SE,144,0.0,0.0,53,0.00,,---,0.00,VWS V15.00,2015-08-29 07:17:00,
2015-08-29 00:22:00,58.1,41.1,29.89,SE,144,0.0,0.0,53,0.00,,---,0.00,VWS V15.00,2015-08-29 07:22:00,
2015-08-29 00:27:00,58.3,41.2,29.89,SE,144,0.0,0.0,53,0.00,,---,0.00,VWS V15.00,2015-08-29 07:27:00,
2015-08-29 00:32:00,58.3,41.7,29.89,SE,144,0.0,0.0,54,0.00,,---,0.00,VWS V15.00,2015-08-29 07:32:00,
2015-08-29 00:37:00,58.3,41.7,29.89,SE,144,0.0,0.0,54,0.00,,---,0.00,VWS V15.00,2015-08-29 07:37:00,
2015-08-29 00:38:00,58.3,41.7,29.89,SE,144,0.0,0.0,54,0.00,,---,0.00,VWS V15.00,2015-08-29 07:38:00,
2015-08-29 00:43:00,58.3,41.7,29.89,SE,144,0.0,0.0,54,0.00,,---,0.00,VWS V15.00,2015-08-29 07:43:00,
2015-08-29 00:48:00,58.5,41.9,29.86,SE,144,0.0,0.0,54,0.00,,---,0.00,VWS V15.00,2015-08-29 07:48:00,
2015-08-29 00:53:00,58.5,41.9,29.86,SE,144,0.0,0.0,54,0.00,,---,0.00,VWS V15.00,2015-08-29 07:53:00,
2015-08-29 00:58:00,58.6,42.1,29.86,SE,144,0.0,0.0,54,0.00,,---,0.00,VWS V15.00,2015-08-29 07:58:00,
2015-08-29 01:03:00,58.6,42.1,29.86,SE,144,0.0,0.0,54,0.00,,---,0.00,VWS V15.00,2015-08-29 08:03:00,
2015-08-29 01:08:00,58.8,42.2,29.86,SE,144,0.0,0.0,54,0.00,,---,0.00,VWS V15.00,2015-08-29 08:08:00,
2015-08-29 01:13:00,58.8,42.2,29.86,SE,144,0.0,0.0,54,0.00,,---,0.00,VWS V15.00,2015-08-29 08:13:00,
2015-08-29 01:18:00,58.6,41.6,29.86,SE,144,0.0,0.0,53,0.00,,---,0.00,VWS V15.00,2015-08-29 08:18:00,
2015-08-29 01:23:00,58.6,41.6,29.86,SE,144,0.0,0.0,53,0.00,,---,0.00,VWS V15.00,2015-08-29 08:23:00,
2015-08-29 01:27:00,58.6,41.6,29.86,SE,144,0.0,0.0,53,0.00,,---,0.00,VWS V15.00,2015-08-29 08:27:00,
2015-08-29 01:32:00,58.6,42.1,29.86,SE,144,0.0,0.0,54,0.00,,---,0.00,VWS V15.00,2015-08-29 08:32:00,
2015-08-29 01:37:00,58.5,41.9,29.86,SE,144,0.0,0.0,54,0.00,,---,0.00,VWS V15.00,2015-08-29 08:37:00,
2015-08-29 01:42:00,58.5,41.9,29.86,SE,144,0.0,0.0,54,0.00,,---,0.00,VWS V15.00,2015-08-29 08:42:00,
2015-08-29 01:47:00,58.3,41.7,29.86,SE,144,0.0,0.0,54,0.00,,---,0.00,VWS V15.00,2015-08-29 08:47:00,
2015-08-29 01:52:00,58.3,41.7,29.86,SE,144,0.0,0.0,54,0.00,,---,0.00,VWS V15.00,2015-08-29 08:52:00,
2015-08-29 01:57:00,58.1,41.6,29.86,SE,144,0.0,0.0,54,0.00,,---,0.00,VWS V15.00,2015-08-29 08:57:00,
2015-08-29 02:02:00,58.1,41.6,29.83,SE,144,0.0,0.0,54,0.00,,---,0.00,VWS V15.00,2015-08-29 09:02:00,
2015-08-29 02:07:00,58.1,42.0,29.83,SE,144,0.0,0.0,55,0.00,,---,0.00,VWS V15.00,2015-08-29 09:07:00,
2015-08-29 02:12:00,58.1,42.0,29.83,SE,144,0.0,0.0,55,0.00,,---,0.00,VWS V15.00,2015-08-29 09:12:00,
2015-08-29 02:17:00,57.9,41.9,29.83,SE,144,0.0,0.0,55,0.00,,---,0.00,VWS V15.00,2015-08-29 09:17:00,
2015-08-29 02:22:00,57.9,41.9,29.83,SE,144,0.0,0.0,55,0.00,,---,0.00,VWS V15.00,2015-08-29 09:22:00,
2015-08-29 02:27:00,57.9,41.9,29.83,SE,144,0.0,0.0,55,0.00,,---,0.00,VWS V15.00,2015-08-29 09:27:00,
2015-08-29 02:32:00,57.7,41.7,29.83,SE,144,0.0,0.0,55,0.00,,---,0.00,VWS V15.00,2015-08-29 09:32:00,
2015-08-29 02:37:00,57.7,41.7,29.83,SE,144,0.0,0.0,55,0.00,,---,0.00,VWS V15.00,2015-08-29 09:37:00,
2015-08-29 02:42:00,57.7,42.2,29.83,SE,144,0.0,0.0,56,0.00,,---,0.00,VWS V15.00,2015-08-29 09:42:00,
2015-08-29 02:47:00,57.6,42.0,29.83,SE,144,0.0,0.0,56,0.00,,---,0.00,VWS V15.00,2015-08-29 09:47:00,
2015-08-29 02:52:00,57.6,41.5,29.80,SE,144,0.0,0.0,55,0.00,,---,0.00,VWS V15.00,2015-08-29 09:52:00,
2015-08-29 02:57:00,57.4,41.4,29.80,SE,146,0.0,0.0,55,0.00,,---,0.00,VWS V15.00,2015-08-29 09:57:00,
2015-08-29 03:02:00,57.2,41.7,29.80,SE,146,0.0,0.0,56,0.00,,---,0.00,VWS V15.00,2015-08-29 10:02:00,
2015-08-29 03:07:00,57.2,41.7,29.80,SE,146,0.0,0.0,56,0.00,,---,0.00,VWS V15.00,2015-08-29 10:07:00,
2015-08-29 03:12:00,57.2,41.7,29.80,SSE,151,0.0,0.0,56,0.00,,---,0.00,VWS V15.00,2015-08-29 10:12:00,
2015-08-29 03:22:00,57.2,41.7,29.77,NNW,327,0.0,0.0,56,0.00,,---,0.00,VWS V15.00,2015-08-29 10:22:00,
2015-08-29 03:27:00,57.4,41.8,29.77,NNW,327,0.0,0.0,56,0.00,,---,0.00,VWS V15.00,2015-08-29 10:27:00,
2015-08-29 03:32:00,57.6,42.0,29.77,NW,312,0.0,0.0,56,0.00,,---,0.00,VWS V15.00,2015-08-29 10:32:00,
2015-08-29 03:37:00,57.6,42.0,29.77,NW,312,0.0,0.0,56,0.00,,---,0.00,VWS V15.00,2015-08-29 10:37:00,
2015-08-29 03:42:00,57.2,41.7,29.77,NW,312,0.0,0.0,56,0.00,,---,0.00,VWS V15.00,2015-08-29 10:42:00,
2015-08-29 03:47:00,57.0,42.0,29.77,NW,312,0.0,0.0,57,0.00,,---,0.00,VWS V15.00,2015-08-29 10:47:00,
2015-08-29 03:52:00,56.8,41.8,29.77,NW,312,0.0,0.0,57,0.00,,---,0.00,VWS V15.00,2015-08-29 10:52:00,
2015-08-29 03:57:00,56.7,41.6,29.77,NW,312,0.0,0.0,57,0.00,,---,0.00,VWS V15.00,2015-08-29 10:57:00,
2015-08-29 04:02:00,56.5,41.9,29.77,NW,312,0.0,0.0,58,0.00,,---,0.00,VWS V15.00,2015-08-29 11:02:00,
2015-08-29 04:07:00,56.3,41.7,29.77,NW,312,0.0,0.0,58,0.00,,---,0.00,VWS V15.00,2015-08-29 11:07:00,
2015-08-29 04:12:00,56.1,41.6,29.77,NW,312,0.0,0.0,58,0.00,,---,0.00,VWS V15.00,2015-08-29 11:12:00,
2015-08-29 04:17:00,55.9,41.4,29.77,NW,312,0.0,0.0,58,0.00,,---,0.00,VWS V15.00,2015-08-29 11:17:00,
2015-08-29 04:22:00,55.8,41.7,29.77,NW,312,0.0,0.0,59,0.00,,---,0.00,VWS V15.00,2015-08-29 11:22:00,
2015-08-29 04:27:00,55.8,41.7,29.77,NW,312,0.0,0.0,59,0.00,,---,0.00,VWS V15.00,2015-08-29 11:27:00,
2015-08-29 04:32:00,55.8,41.7,29.77,NW,312,0.0,0.0,59,0.00,,---,0.00,VWS V15.00,2015-08-29 11:32:00,
2015-08-29 04:37:00,55.8,41.7,29.77,NW,312,0.0,0.0,59,0.00,,---,0.00,VWS V15.00,2015-08-29 11:37:00,
2015-08-29 04:42:00,55.8,41.7,29.77,NW,312,0.0,0.0,59,0.00,,---,0.00,VWS V15.00,2015-08-29 11:42:00,
2015-08-29 04:47:00,55.8,41.7,29.77,NW,312,0.0,0.0,59,0.00,,---,0.00,VWS V15.00,2015-08-29 11:47:00,
2015-08-29 04:52:00,55.6,41.5,29.77,NW,312,0.0,0.0,59,0.00,,---,0.00,VWS V15.00,2015-08-29 11:52:00,
2015-08-29 04:57:00,55.6,41.5,29.77,NW,312,0.0,0.0,59,0.00,,---,0.00,VWS V15.00,2015-08-29 11:57:00,
2015-08-29 05:02:00,55.4,41.8,29.77,NW,312,0.0,0.0,60,0.00,,---,0.00,VWS V15.00,2015-08-29 12:02:00,
2015-08-29 05:07:00,55.2,41.6,29.74,NW,312,0.0,0.0,60,0.00,,---,0.00,VWS V15.00,2015-08-29 12:07:00,
2015-08-29 05:12:00,54.9,41.2,29.74,NW,312,0.0,0.0,60,0.00,,---,0.00,VWS V15.00,2015-08-29 12:12:00,
2015-08-29 05:17:00,54.7,41.5,29.74,NW,312,0.0,0.0,61,0.00,,---,0.00,VWS V15.00,2015-08-29 12:17:00,
2015-08-29 05:22:00,54.5,41.3,29.74,NW,312,0.0,0.0,61,0.00,,---,0.00,VWS V15.00,2015-08-29 12:22:00,
2015-08-29 05:27:00,54.1,41.4,29.74,NW,312,0.0,0.0,62,0.00,,---,0.00,VWS V15.00,2015-08-29 12:27:00,
2015-08-29 05:32:00,54.1,41.4,29.74,NW,312,0.0,0.0,62,0.00,,---,0.00,VWS V15.00,2015-08-29 12:32:00,
2015-08-29 05:37:00,53.8,41.1,29.74,NW,312,0.0,0.0,62,0.00,,---,0.00,VWS V15.00,2015-08-29 12:37:00,
2015-08-29 05:42:00,53.4,41.6,29.74,NW,312,0.0,0.0,64,0.00,,---,0.00,VWS V15.00,2015-08-29 12:42:00,
2015-08-29 05:47:00,53.4,41.6,29.74,NW,312,0.0,0.0,64,0.00,,---,0.00,VWS V15.00,2015-08-29 12:47:00,
2015-08-29 05:52:00,53.2,41.8,29.74,NW,312,0.0,0.0,65,0.00,,---,0.00,VWS V15.00,2015-08-29 12:52:00,
2015-08-29 05:57:00,53.1,42.0,29.74,NW,312,0.0,0.0,66,0.00,,---,0.00,VWS V15.00,2015-08-29 12:57:00,
2015-08-29 06:02:00,53.1,41.6,29.74,NW,312,0.0,0.0,65,0.00,,---,0.00,VWS V15.00,2015-08-29 13:02:00,
2015-08-29 06:07:00,52.9,41.5,29.74,NW,312,0.0,0.0,65,0.00,,---,0.00,VWS V15.00,2015-08-29 13:07:00,
2015-08-29 06:12:00,52.9,41.8,29.74,NW,312,0.0,0.0,66,0.00,,---,0.00,VWS V15.00,2015-08-29 13:12:00,
2015-08-29 06:17:00,52.9,41.8,29.74,NW,312,0.0,0.0,66,0.00,,---,0.00,VWS V15.00,2015-08-29 13:17:00,
2015-08-29 06:22:00,53.1,42.0,29.74,NW,312,0.0,0.0,66,0.00,,---,0.00,VWS V15.00,2015-08-29 13:22:00,
2015-08-29 06:27:00,53.1,42.0,29.74,NW,312,0.0,0.0,66,0.00,,---,0.00,VWS V15.00,2015-08-29 13:27:00,
2015-08-29 06:32:00,53.1,42.0,29.74,NW,312,0.0,0.0,66,0.00,,---,0.00,VWS V15.00,2015-08-29 13:32:00,
2015-08-29 06:37:00,53.2,42.2,29.74,NW,312,0.0,0.0,66,0.00,,---,0.00,VWS V15.00,2015-08-29 13:37:00,
2015-08-29 06:42:00,53.2,42.2,29.74,NW,312,0.0,0.0,66,0.00,,---,0.00,VWS V15.00,2015-08-29 13:42:00,
2015-08-29 06:47:00,53.6,42.5,29.74,NW,312,0.0,0.0,66,0.00,,---,0.00,VWS V15.00,2015-08-29 13:47:00,
2015-08-29 06:52:00,53.8,42.3,29.74,NW,312,0.0,0.0,65,0.00,,---,0.00,VWS V15.00,2015-08-29 13:52:00,
2015-08-29 06:57:00,54.1,42.7,29.74,NW,312,0.0,0.0,65,0.00,,---,0.00,VWS V15.00,2015-08-29 13:57:00,
2015-08-29 07:02:00,54.3,42.8,29.74,NNE,15,0.0,0.0,65,0.00,,---,0.00,VWS V15.00,2015-08-29 14:02:00,
2015-08-29 07:07:00,54.5,43.0,29.71,SE,128,4.0,4.0,65,0.00,,---,0.00,VWS V15.00,2015-08-29 14:07:00,
2015-08-29 07:12:00,55.8,43.8,29.71,West,273,0.0,0.0,64,0.00,,---,0.00,VWS V15.00,2015-08-29 14:12:00,
2015-08-29 07:17:00,55.9,44.0,29.74,West,273,0.0,0.0,64,0.00,,---,0.00,VWS V15.00,2015-08-29 14:17:00,
2015-08-29 07:22:00,56.7,44.2,29.74,NNE,18,0.0,0.0,63,0.00,,---,0.00,VWS V15.00,2015-08-29 14:22:00,
2015-08-29 07:27:00,57.0,43.7,29.74,NNE,17,0.0,0.0,61,0.00,,---,0.00,VWS V15.00,2015-08-29 14:27:00,
2015-08-29 07:32:00,57.6,43.8,29.74,NNE,17,0.0,0.0,60,0.00,,---,0.00,VWS V15.00,2015-08-29 14:32:00,
2015-08-29 07:37:00,57.9,44.1,29.74,NNE,17,0.0,0.0,60,0.00,,---,0.00,VWS V15.00,2015-08-29 14:37:00,
2015-08-29 07:42:00,58.3,43.6,29.74,ESE,113,0.0,0.0,58,0.00,,---,0.00,VWS V15.00,2015-08-29 14:42:00,
2015-08-29 07:47:00,58.5,43.8,29.74,ESE,113,0.0,0.0,58,0.00,,---,0.00,VWS V15.00,2015-08-29 14:47:00,
2015-08-29 07:52:00,58.8,44.1,29.71,ESE,113,0.0,0.0,58,0.00,,---,0.00,VWS V15.00,2015-08-29 14:52:00,
2015-08-29 07:57:00,59.2,44.4,29.71,ESE,113,0.0,0.0,58,0.00,,---,0.00,VWS V15.00,2015-08-29 14:57:00,
2015-08-29 08:02:00,59.7,44.5,29.71,ESE,111,0.0,0.0,57,0.00,,---,0.00,VWS V15.00,2015-08-29 15:02:00,
2015-08-29 08:06:00,60.1,44.8,29.71,ESE,111,0.0,0.0,57,0.00,,---,0.00,VWS V15.00,2015-08-29 15:06:00,
2015-08-29 08:11:00,60.8,45.0,29.71,ESE,111,0.0,0.0,56,0.00,,---,0.00,VWS V15.00,2015-08-29 15:11:00,
2015-08-29 08:16:00,61.7,45.9,29.71,ESE,111,0.0,0.0,56,0.00,,---,0.00,VWS V15.00,2015-08-29 15:16:00,
2015-08-29 08:21:00,62.4,44.6,29.68,ESE,111,0.0,0.0,52,0.00,,---,0.00,VWS V15.00,2015-08-29 15:21:00,
2015-08-29 08:26:00,63.3,44.4,29.68,ESE,111,0.0,0.0,50,0.00,,---,0.00,VWS V15.00,2015-08-29 15:26:00,
2015-08-29 08:31:00,64.0,44.5,29.68,ESE,111,0.0,0.0,49,0.00,,---,0.00,VWS V15.00,2015-08-29 15:31:00,
2015-08-29 08:36:00,65.1,43.8,29.71,ESE,111,0.0,0.0,46,0.00,,---,0.00,VWS V15.00,2015-08-29 15:36:00,
2015-08-29 08:41:00,65.7,43.8,29.71,ESE,111,0.0,0.0,45,0.00,,---,0.00,VWS V15.00,2015-08-29 15:41:00,
2015-08-29 08:46:00,66.0,44.1,29.71,ESE,111,0.0,0.0,45,0.00,,---,0.00,VWS V15.00,2015-08-29 15:46:00,
2015-08-29 08:51:00,66.7,44.2,29.71,ESE,111,0.0,0.0,44,0.00,,---,0.00,VWS V15.00,2015-08-29 15:51:00,
2015-08-29 08:56:00,67.5,43.6,29.71,NNW,345,0.0,0.0,42,0.00,,---,0.00,VWS V15.00,2015-08-29 15:56:00,
2015-08-29 09:01:00,68.4,43.8,29.71,NNE,26,0.0,0.0,41,0.00,,---,0.00,VWS V15.00,2015-08-29 16:01:00,
2015-08-29 09:06:00,69.1,43.1,29.71,NW,321,0.0,0.0,39,0.00,,---,0.00,VWS V15.00,2015-08-29 16:06:00,
2015-08-29 09:11:00,69.6,43.6,29.71,WSW,258,0.0,0.0,39,0.00,,---,0.00,VWS V15.00,2015-08-29 16:11:00,
2015-08-29 09:16:00,69.8,43.1,29.71,NNW,340,0.0,0.0,38,0.00,,---,0.00,VWS V15.00,2015-08-29 16:16:00,
2015-08-29 09:21:00,70.0,43.2,29.71,NNW,342,0.0,0.0,38,0.00,,---,0.00,VWS V15.00,2015-08-29 16:21:00,
2015-08-29 09:26:00,70.5,42.3,29.71,NE,56,2.7,2.7,36,0.00,,---,0.00,VWS V15.00,2015-08-29 16:26:00,
2015-08-29 09:31:00,70.7,42.5,29.71,NE,48,0.0,0.0,36,0.00,,---,0.00,VWS V15.00,2015-08-29 16:31:00,
2015-08-29 09:36:00,71.6,42.5,29.71,SE,130,0.0,0.0,35,0.00,,---,0.00,VWS V15.00,2015-08-29 16:36:00,
2015-08-29 09:41:00,72.0,42.8,29.71,North,353,0.0,0.0,35,0.00,,---,0.00,VWS V15.00,2015-08-29 16:41:00,
2015-08-29 09:46:00,72.9,42.9,29.71,SSE,155,0.0,0.0,34,0.00,,---,0.00,VWS V15.00,2015-08-29 16:46:00,
2015-08-29 09:51:00,73.2,42.4,29.71,SSW,198,0.0,0.0,33,0.00,,---,0.00,VWS V15.00,2015-08-29 16:51:00,
2015-08-29 09:56:00,73.0,43.0,29.71,ENE,61,0.0,0.0,34,0.00,,---,0.00,VWS V15.00,2015-08-29 16:56:00,
2015-08-29 10:01:00,73.0,42.3,29.71,East,86,0.0,0.0,33,0.00,,---,0.00,VWS V15.00,2015-08-29 17:01:00,
2015-08-29 10:06:00,72.9,42.1,29.71,ENE,75,0.0,0.0,33,0.00,,---,0.00,VWS V15.00,2015-08-29 17:06:00,
2015-08-29 10:11:00,72.9,42.1,29.71,East,86,0.0,0.0,33,0.00,,---,0.00,VWS V15.00,2015-08-29 17:11:00,
2015-08-29 10:16:00,72.9,42.1,29.71,East,98,0.0,0.0,33,0.00,,---,0.00,VWS V15.00,2015-08-29 17:16:00,
2015-08-29 10:21:00,72.9,42.1,29.71,SE,142,0.0,0.0,33,0.00,,---,0.00,VWS V15.00,2015-08-29 17:21:00,
2015-08-29 10:26:00,72.7,42.0,29.71,SE,141,0.0,0.0,33,0.00,,---,0.00,VWS V15.00,2015-08-29 17:26:00,
2015-08-29 10:31:00,72.7,42.7,29.71,SE,141,0.0,0.0,34,0.00,,---,0.00,VWS V15.00,2015-08-29 17:31:00,
2015-08-29 10:36:00,72.5,41.8,29.71,SE,141,0.0,0.0,33,0.00,,---,0.00,VWS V15.00,2015-08-29 17:36:00,
2015-08-29 10:41:00,72.3,42.4,29.71,SE,141,0.0,0.0,34,0.00,,---,0.00,VWS V15.00,2015-08-29 17:41:00,
2015-08-29 10:46:00,72.1,42.2,29.71,NNE,31,0.0,0.0,34,0.00,,---,0.00,VWS V15.00,2015-08-29 17:46:00,
2015-08-29 10:51:00,72.0,42.1,29.71,ENE,77,0.0,0.0,34,0.00,,---,0.00,VWS V15.00,2015-08-29 17:51:00,
2015-08-29 10:56:00,71.8,41.9,29.71,SSE,164,0.0,0.0,34,0.00,,---,0.00,VWS V15.00,2015-08-29 17:56:00,
2015-08-29 11:01:00,71.6,41.8,29.71,SSE,151,0.0,0.0,34,0.00,,---,0.00,VWS V15.00,2015-08-29 18:01:00,
2015-08-29 11:06:00,71.6,42.5,29.71,SSE,151,0.0,0.0,35,0.00,,---,0.00,VWS V15.00,2015-08-29 18:06:00,
2015-08-29 11:11:00,71.4,43.1,29.71,NNE,32,0.0,0.0,36,0.00,,---,0.00,VWS V15.00,2015-08-29 18:11:00,
2015-08-29 11:16:00,71.2,42.9,29.71,ENE,73,0.0,0.0,36,0.00,,---,0.00,VWS V15.00,2015-08-29 18:16:00,
2015-08-29 11:21:00,71.2,42.9,29.71,ESE,103,4.0,4.0,36,0.00,,---,0.00,VWS V15.00,2015-08-29 18:21:00,
2015-08-29 11:26:00,72.1,42.2,29.71,SE,137,2.7,2.7,34,0.00,,---,0.00,VWS V15.00,2015-08-29 18:26:00,